Regional Weather Roundup
Issued by NWS

Home | Current Version | Previous Version | Graphics & Text | Print | Product List | Glossary On
Versions: 1 2 3 4 5 6 7 8 9 10 11 12 13 14 15 16 17 18 19 20 21 22 23 24 25 26 27 28 29 30 31 32 33 34 35 36 37 38 39 40 41 42 43 44 45 46 47 48
000
ASUS45 KSLC 310910
RWRUT

UTAH REGIONAL WEATHER ROUNDUP
NATIONAL WEATHER SERVICE SALT LAKE CITY UT
300 AM MDT MON AUG 31 2015

UTZ001>011-023>025-311000-

NORTHERN UTAH

CITY           SKY/WX    TMP DP  RH WIND       PRES   REMARKS
BRIGHAM CITY   CLEAR     64  32  30 S3        30.03F
HILL AFB       PTCLDY    64  40  41 NW6       30.05R
LOGAN          CLEAR     57  40  52 CALM      30.08R
OGDEN          PTCLDY    61  39  44 NW7       30.02S
PROVO AIRPORT  PTCLDY    63  52  67 SE3       30.03F
SALT LAKE CITY MOCLDY    68  45  43 NW5       30.01R
VERNAL         PTCLDY    61  52  72 W3        30.11S
WENDOVER       PTCLDY    70  27  19 N9        30.06R
HEBER CITY     PTCLDY    55  48  76 CALM      30.11F
WEST JORDAN    MOCLDY    70  39  32 NW9       30.05R

$$

UTZ012>022-026-027-311000-

SOUTHERN/CENTRAL UTAH

CITY           SKY/WX    TMP DP  RH WIND       PRES   REMARKS
BLANDING       MOCLDY    58  54  84 N6        30.25S
BRYCE CANYON   CLEAR     46  43  89 W3        30.28F
CEDAR CITY     CLEAR     64  47  53 CALM      30.10S
DELTA          PTCLDY    65  37  35 W5        30.02R
HANKSVILLE     PTCLDY    66  57  72 N12       30.05F
MILFORD        CLEAR     68  41  37 S9        30.04S
MOAB/CYNLANDS  MOCLDY    65  57  75 SE9       30.06S
PRICE          CLEAR     57  50  77 CALM      30.14S
ST GEORGE      MOSUNNY   79  55  44 E12       29.95R
KANAB          CLEAR     63  57  82 N10       30.16S

$$

REGIONAL REPORTS     COLORADO/ARIZONA

CITY           SKY/WX    TMP DP  RH WIND       PRES   REMARKS
CRAIG, CO      CLOUDY    60  49  66 E12       30.21S
GRAND JUNCTION CLOUDY    62  59  90 E9        30.12F
RIFLE          CLOUDY    59  56  89 NW3       30.20F
MONTROSE       MOCLDY    59  57  93 S7        30.21F
CORTEZ         CLEAR     59  52  77 CALM      30.19S
PAGE, AZ       CLEAR     69  57  65 CALM      30.07F
GRAND CANYON     N/A    N/A N/A N/A MISG      30.23S
KINGMAN        CLEAR     78  39  24 S10       29.94F
FLAGSTAFF      MOCLDY    54  54 100 CALM      30.29S

$$

REGIONAL REPORTS    NEVADA/IDAHO/WYOMING

CITY           SKY/WX    TMP DP  RH WIND       PRES   REMARKS
LAS VEGAS, NV  PTCLDY    85  43  22 S6        29.78S
ELY            CLEAR     49  26  41 S5        30.15S
ELKO           CLEAR     49  23  36 E5        30.10S
POCATELLO, ID  CLEAR     50  35  56 SW8       30.08R
BURLEY         CLEAR     51  37  58 VRB3      30.07R
EVANSTON, WY   PTCLDY    56  40  55 N7        30.20F
ROCK SPRINGS   MOCLDY    56  48  74 S10       30.17R
KEMMERER       CLEAR     52  34  50 NW8       30.22R

$$



USA.gov is the U.S. government's official web portal to all federal, state and local government web resources and services.